OK3MS-5 Weather Reports


time (UTC)temp
C
wind
direction
speed
KPH
gust
KPH
rain 1hr
cm
rain 24hr
cm
rain mn
cm
humidity
%
barometer
mb
20260506112506 21 161 4.8 9.7 0.00 0.00 0.00 45 1003.7
20260506112002 21 197 3.2 4.8 0.00 0.00 0.00 46 1003.8
20260506111503 21 197 3.2 3.2 0.00 0.00 0.00 45 1003.7
20260506111004 21 197 0.0 0.0 0.00 0.00 0.00 43 1003.7
20260506110504 21 197 0.0 3.2 0.00 0.00 0.00 43 1003.8
20260506110004 21 197 0.0 3.2 0.00 0.00 0.00 43 1003.8
20260506105502 21 252 3.2 11.3 0.00 0.00 0.00 45 1003.9
20260506105004 21 169 0.0 8.0 0.00 0.00 0.00 45 1003.9
20260506104505 21 169 0.0 4.8 0.00 0.00 0.00 43 1004.1
20260506104003 21 169 1.6 4.8 0.00 0.00 0.00 44 1004.1
20260506103504 21 169 0.0 4.8 0.00 0.00 0.00 46 1004.1
20260506103005 20 150 0.0 3.2 0.00 0.00 0.00 46 1004.2
20260506102504 20 150 3.2 11.3 0.00 0.00 0.00 47 1004.3
20260506102005 21 181 4.8 8.0 0.00 0.00 0.00 46 1004.1
20260506101502 20 162 3.2 14.5 0.00 0.00 0.00 47 1004.4
20260506101003 20 156 6.4 9.7 0.00 0.00 0.00 48 1004.4
20260506100505 21 162 1.6 6.4 0.00 0.00 0.00 47 1004.4
20260506100005 21 175 3.2 4.8 0.00 0.00 0.00 49 1004.5
20260506095504 20 176 3.2 3.2 0.00 0.00 0.00 50 1004.7
20260506095003 20 176 1.6 9.7 0.00 0.00 0.00 53 1004.7
20260506094504 20 191 0.0 4.8 0.00 0.00 0.00 56 1004.8
20260506094002 20 187 1.6 4.8 0.00 0.00 0.00 53 1004.9
20260506093503 20 187 3.2 4.8 0.00 0.00 0.00 54 1004.9
20260506093003 20 189 1.6 3.2 0.00 0.00 0.00 53 1005.0
20260506092506 20 156 0.0 8.0 0.00 0.00 0.00 54 1005.0
20260506092005 19 171 3.2 6.4 0.00 0.00 0.00 53 1005.3
20260506091504 18 161 3.2 8.0 0.00 0.00 0.00 56 1005.3
20260506091004 19 264 1.6 4.8 0.00 0.00 0.00 54 1005.4
20260506090505 18 150 9.7 11.3 0.00 0.00 0.00 58 1005.5
20260506090003 18 172 1.6 8.0 0.00 0.00 0.00 59 1005.4
20260506085508 18 172 0.0 9.7 0.00 0.00 0.00 58 1005.4
20260506085006 18 173 0.0 11.3 0.00 0.00 0.00 59 1005.5
20260506084504 18 174 3.2 11.3 0.00 0.00 0.00 59 1005.4
20260506084006 18 234 3.2 9.7 0.00 0.00 0.00 60 1005.4
20260506083503 18 248 0.0 3.2 0.00 0.00 0.00 61 1005.6
20260506083002 18 162 0.0 6.4 0.00 0.00 0.00 62 1005.7
20260506082503 17 162 3.2 11.3 0.00 0.00 0.00 62 1005.7
20260506082009 17 162 1.6 1.6 0.00 0.00 0.00 61 1005.7
20260506081503 18 162 0.0 1.6 0.00 0.00 0.00 59 1005.6
20260506081007 17 162 3.2 11.3 0.00 0.00 0.00 61 1005.7
20260506080505 17 148 4.8 12.9 0.00 0.00 0.00 64 1005.7
20260506073505 16 204 1.6 4.8 0.00 0.00 0.00 70 1006.1
20260506073006 16 204 0.0 4.8 0.00 0.00 0.00 69 1006.2
20260506072503 16 171 0.0 3.2 0.00 0.00 0.00 70 1006.1
20260506072003 16 168 4.8 9.7 0.00 0.00 0.00 71 1006.3
20260506071504 16 168 9.7 9.7 0.00 0.00 0.00 72 1006.4
20260506071002 16 228 0.0 3.2 0.00 0.00 0.00 72 1006.4
20260506070505 15 264 0.0 4.8 0.00 0.00 0.00 73 1006.4
20260506062503 15 248 0.0 9.7 0.00 0.00 0.00 81 1006.8
20260506062003 14 192 0.0 6.4 0.00 0.00 0.00 81 1006.7
20260506061504 13 192 1.6 3.2 0.00 0.00 0.00 83 1006.9
20260506061004 13 192 1.6 6.4 0.00 0.00 0.00 83 1006.8
20260506060506 13 198 0.0 4.8 0.00 0.00 0.00 84 1006.9
20260506051004 12 186 0.0 0.0 0.00 0.00 0.00 92 1007.2
20260506050502 11 186 3.2 6.4 0.00 0.00 0.00 92 1007.2
20260506045010 11 254 0.0 0.0 0.00 0.00 0.00 95 1007.2
20260506044502 10 254 0.0 0.0 0.00 0.00 0.00 98 1007.5
20260506044004 10 254 0.0 0.0 0.00 0.00 0.00 99 1007.5
20260506043503 10 254 0.0 0.0 0.00 0.00 0.00 99 1007.6
20260506043002 9 255 0.0 0.0 0.00 0.00 0.00 99 1007.7
20260506042509 9 255 0.0 0.0 0.00 0.00 0.00 99 1007.6
20260506042005 8 255 0.0 0.0 0.00 0.00 0.00 99 1007.6
20260506041503 8 255 0.0 0.0 0.00 0.00 0.00 99 1007.5
20260506040506 8 255 0.0 0.0 0.00 0.00 0.00 99 1007.4
20260506040009 8 255 0.0 0.0 0.00 0.00 0.00 99 1007.4
20260506035504 8 255 0.0 0.0 0.00 0.00 0.00 99 1007.3
20260506035012 9 255 0.0 0.0 0.00 0.00 0.00 99 1007.3
20260506034502 8 255 0.0 0.0 0.00 0.00 0.00 99 1007.2
20260506034003 8 255 0.0 0.0 0.00 0.00 0.00 99 1007.2
20260506033505 8 254 0.0 0.0 0.00 0.00 0.00 99 1007.1
20260506033005 8 255 0.0 0.0 0.00 0.00 0.00 99 1007.0
20260506032003 8 255 0.0 0.0 0.00 0.00 0.00 99 1007.0
20260506031505 9 254 0.0 0.0 0.00 0.00 0.00 99 1007.0
20260506031008 9 254 0.0 0.0 0.00 0.00 0.00 99 1006.8
20260506030504 9 255 0.0 0.0 0.00 0.00 0.00 99 1006.9
20260506030007 9 255 0.0 0.0 0.00 0.00 0.00 99 1007.0
20260506025505 10 254 0.0 0.0 0.00 0.00 0.00 99 1007.0
20260506025008 10 254 0.0 0.0 0.00 0.00 0.00 99 1006.8
20260506024507 10 254 0.0 0.0 0.00 0.00 0.00 99 1006.9
20260506024008 10 254 0.0 0.0 0.00 0.00 0.00 99 1006.9
20260506023504 10 254 0.0 0.0 0.00 0.00 0.00 99 1006.9
20260506023004 10 254 0.0 0.0 0.00 0.00 0.00 99 1007.0
20260506022509 10 254 0.0 0.0 0.00 0.00 0.00 99 1006.9
20260506022004 10 254 0.0 0.0 0.00 0.00 0.00 99 1007.0
20260506021509 10 254 0.0 0.0 0.00 0.00 0.00 99 1007.0
20260506021002 10 254 0.0 0.0 0.00 0.00 0.00 99 1006.9
20260506020506 10 254 0.0 0.0 0.00 0.00 0.00 99 1007.0
20260506020009 10 255 0.0 0.0 0.00 0.00 0.00 99 1007.1
20260506015503 10 255 0.0 0.0 0.00 0.00 0.00 99 1007.0
20260506015007 10 255 0.0 0.0 0.00 0.00 0.00 99 1006.9
20260506014004 10 255 0.0 0.0 0.00 0.00 0.00 99 1007.1
20260506013505 10 254 0.0 0.0 0.00 0.00 0.00 98 1007.0
20260506013012 11 254 0.0 0.0 0.00 0.00 0.00 98 1006.9
20260506012512 11 254 0.0 0.0 0.00 0.00 0.00 98 1007.0
20260506012003 11 254 0.0 0.0 0.00 0.00 0.00 98 1006.8
20260506011503 11 254 0.0 0.0 0.00 0.00 0.00 98 1006.8
20260506011008 11 254 0.0 0.0 0.00 0.00 0.00 98 1006.8
20260506010505 11 254 0.0 0.0 0.00 0.00 0.00 98 1006.8
20260506010003 11 254 0.0 0.0 0.00 0.00 0.00 97 1006.8
20260506005504 11 254 0.0 0.0 0.00 0.00 0.00 97 1006.8
20260506005003 11 254 0.0 0.0 0.00 0.00 0.00 96 1006.8
20260506004503 11 254 0.0 0.0 0.00 0.00 0.00 96 1006.7
20260506004002 11 254 0.0 0.0 0.00 0.00 0.00 96 1006.6
20260506003504 12 254 0.0 0.0 0.00 0.00 0.00 96 1006.5
20260506003006 12 254 0.0 0.0 0.00 0.00 0.00 95 1006.6
20260506002504 12 254 0.0 0.0 0.00 0.00 0.00 95 1006.6
20260506002006 12 254 0.0 0.0 0.00 0.00 0.00 94 1006.4
20260506001502 12 254 0.0 0.0 0.00 0.00 0.00 94 1006.3
20260506001009 12 254 0.0 0.0 0.00 0.00 0.00 93 1006.3
20260506000504 12 254 0.0 0.0 0.00 0.00 0.00 93 1006.3
20260506000008 12 254 0.0 0.0 0.00 0.00 0.00 92 1006.1
20260505235503 12 254 0.0 0.0 0.00 0.00 0.00 92 1006.1
20260505235004 12 254 0.0 3.2 0.00 0.00 0.00 91 1006.0
20260505234508 12 254 0.0 4.8 0.00 0.00 0.00 91 1006.1
20260505234003 13 254 0.0 0.0 0.00 0.00 0.00 90 1006.0
20260505233502 13 255 1.6 1.6 0.00 0.00 0.00 89 1006.0
20260505233009 13 255 0.0 4.8 0.00 0.00 0.00 88 1005.9
20260505232507 13 256 4.8 9.7 0.00 0.00 0.00 87 1005.8
20260505232005 13 245 1.6 9.7 0.00 0.00 0.00 86 1005.7
20260505231505 13 270 1.6 8.0 0.00 0.00 0.00 85 1005.5
20260505231002 13 318 3.2 12.9 0.00 0.00 0.00 84 1005.4
20260505230503 13 331 1.6 3.2 0.00 0.00 0.00 84 1005.4
20260505230005 13 272 0.0 6.4 0.00 0.00 0.00 84 1005.5
20260505225507 14 272 8.0 8.0 0.00 0.00 0.00 84 1005.7
20260505225003 14 252 3.2 9.7 0.00 0.00 0.00 83 1005.6
20260505224504 14 260 12.9 12.9 0.00 0.00 0.00 83 1005.6
20260505224003 14 270 1.6 11.3 0.00 0.00 0.00 83 1005.7
20260505223503 14 279 0.0 8.0 0.00 0.00 0.00 83 1005.6
20260505223008 15 258 3.2 9.7 0.00 0.00 0.00 80 1005.7
20260505222502 15 264 3.2 24.1 0.00 0.00 0.00 76 1005.7
20260505221503 15 256 3.2 14.5 0.00 0.00 0.00 72 1005.3
20260505221008 15 251 3.2 12.9 0.00 0.00 0.00 72 1005.2
20260505220504 16 264 9.7 14.5 0.00 0.00 0.00 72 1005.1
20260505220009 16 270 17.7 19.3 0.00 0.00 0.00 72 1005.1
20260505215502 16 274 19.3 22.5 0.00 0.00 0.00 71 1005.0
20260505215008 16 270 8.0 20.9 0.00 0.00 0.00 71 1005.0
20260505214502 16 234 14.5 14.5 0.00 0.00 0.00 71 1005.0
20260505214010 16 241 8.0 11.3 0.00 0.00 0.00 71 1005.0
20260505213503 16 265 3.2 14.5 0.00 0.00 0.00 72 1004.8
20260505212503 16 252 4.8 19.3 0.00 0.00 0.00 72 1004.7
20260505212008 16 264 9.7 14.5 0.00 0.00 0.00 73 1004.6
20260505211503 16 281 1.6 14.5 0.00 0.00 0.00 74 1004.5
20260505211005 16 244 4.8 14.5 0.00 0.00 0.00 75 1004.4
20260505210504 16 240 9.7 11.3 0.00 0.00 0.00 76 1004.3
20260505210004 15 222 3.2 20.9 0.00 0.00 0.00 76 1004.2
20260505205502 15 198 8.0 8.0 0.00 0.00 0.00 79 1004.1
20260505205009 15 192 0.0 0.0 0.00 0.00 0.00 79 1004.0
20260505204503 15 192 0.0 0.0 0.00 0.00 0.00 79 1003.8
20260505204008 15 192 0.0 1.6 0.00 0.00 0.00 77 1003.5
20260505203503 15 192 0.0 3.2 0.00 0.00 0.00 76 1003.3
20260505203010 16 192 1.6 1.6 0.00 0.00 0.00 75 1003.1
20260505202503 16 204 0.0 1.6 0.00 0.00 0.00 73 1002.9
20260505202010 16 192 0.0 3.2 0.00 0.00 0.00 72 1002.7
20260505201506 16 206 1.6 3.2 0.00 0.00 0.00 70 1002.4
20260505201008 16 166 3.2 24.1 0.00 0.00 0.00 70 1002.6
20260505200503 16 13 1.6 1.6 0.00 0.00 0.00 67 1002.4
20260505200009 16 13 0.0 0.0 0.00 0.00 0.00 66 1002.0
20260505195505 17 13 0.0 0.0 0.00 0.00 0.00 62 1001.8
20260505195009 17 13 0.0 1.6 0.00 0.00 0.00 61 1001.7
20260505194503 17 13 0.0 3.2 0.00 0.00 0.00 63 1001.8
20260505193503 16 13 0.0 0.0 0.00 0.00 0.00 67 1001.8
20260505193004 16 13 0.0 0.0 0.00 0.00 0.00 68 1001.9
20260505192502 16 13 0.0 0.0 0.00 0.00 0.00 68 1001.8
20260505192003 16 13 0.0 1.6 0.00 0.00 0.00 67 1001.7
20260505191502 16 13 1.6 4.8 0.00 0.00 0.00 66 1001.7
20260505191004 16 13 0.0 1.6 0.00 0.00 0.00 66 1001.6
20260505190504 17 13 0.0 1.6 0.00 0.00 0.00 65 1001.6
20260505190003 17 13 0.0 1.6 0.00 0.00 0.00 65 1001.6
20260505185503 17 13 0.0 1.6 0.00 0.00 0.00 64 1001.6
20260505185008 17 13 3.2 6.4 0.00 0.00 0.00 63 1001.4
20260505184502 18 14 1.6 6.4 0.00 0.00 0.00 62 1001.3
20260505184009 17 36 3.2 4.8 0.00 0.00 0.00 61 1001.4
20260505183503 17 26 0.0 3.2 0.00 0.00 0.00 62 1001.4
20260505183004 17 26 1.6 3.2 0.00 0.00 0.00 64 1001.5
20260505182508 17 26 3.2 4.8 0.00 0.00 0.00 64 1001.5
20260505182003 17 19 0.0 3.2 0.00 0.00 0.00 64 1001.5
20260505181503 17 19 3.2 4.8 0.00 0.00 0.00 64 1001.4
20260505181009 17 19 0.0 3.2 0.00 0.00 0.00 63 1001.4
20260505180502 17 19 1.6 4.8 0.00 0.00 0.00 63 1001.4
20260505180010 18 19 3.2 3.2 0.00 0.00 0.00 63 1001.5
20260505175503 18 20 1.6 6.4 0.00 0.00 0.00 62 1001.4
20260505175007 18 19 0.0 8.0 0.00 0.00 0.00 62 1001.5
20260505174503 18 19 0.0 6.4 0.00 0.00 0.00 62 1001.5
20260505174004 18 20 1.6 8.0 0.00 0.00 0.00 60 1001.4
20260505173503 18 7 0.0 3.2 0.00 0.00 0.00 60 1001.5
20260505173003 18 7 3.2 3.2 0.00 0.00 0.00 60 1001.5
20260505172504 18 7 0.0 0.0 0.00 0.00 0.00 60 1001.4
20260505172002 18 7 0.0 0.0 0.00 0.00 0.00 60 1001.3
20260505171504 19 7 0.0 3.2 0.00 0.00 0.00 58 1001.4
20260505171004 19 7 1.6 1.6 0.00 0.00 0.00 57 1001.3
20260505170504 20 7 1.6 3.2 0.00 0.00 0.00 56 1001.4
20260505170003 20 7 0.0 4.8 0.00 0.00 0.00 56 1001.4
20260505165501 20 7 1.6 8.0 0.00 0.00 0.00 56 1001.3
20260505165003 20 6 1.6 6.4 0.00 0.00 0.00 56 1001.5
20260505164504 20 7 1.6 8.0 0.00 0.00 0.00 58 1001.6
20260505164004 20 6 4.8 8.0 0.00 0.00 0.00 57 1001.6
20260505163502 20 6 3.2 8.0 0.00 0.00 0.00 56 1001.7
20260505163003 20 0 1.6 9.7 0.00 0.00 0.00 55 1001.7
20260505162504 20 350 9.7 9.7 0.00 0.00 0.00 54 1001.7
20260505162004 20 349 4.8 14.5 0.00 0.00 0.00 55 1001.8
20260505161505 20 342 6.4 8.0 0.00 0.00 0.00 54 1001.8
20260505161005 20 342 8.0 9.7 0.00 0.00 0.00 54 1001.9
20260505160506 20 316 1.6 9.7 0.00 0.00 0.00 56 1001.9
20260505153002 20 246 0.0 9.7 0.00 0.00 0.00 55 1002.4
20260505152503 21 246 8.0 8.0 0.00 0.00 0.00 54 1002.3
20260505151504 21 298 1.6 3.2 0.00 0.00 0.00 51 1002.4
20260505151006 21 294 3.2 6.4 0.00 0.00 0.00 53 1002.4
20260505150502 21 312 1.6 1.6 0.00 0.00 0.00 51 1002.3
20260505140504 22 108 1.6 8.0 0.00 0.00 0.00 42 1002.5
20260505125002 23 115 3.2 9.7 0.00 0.00 0.00 40 1002.7
20260505124503 23 119 6.4 14.5 0.00 0.00 0.00 39 1002.8
20260505124005 23 18 4.8 12.9 0.00 0.00 0.00 40 1002.8
20260505123503 23 122 3.2 12.9 0.00 0.00 0.00 38 1002.9
20260505123002 23 59 0.0 4.8 0.00 0.00 0.00 41 1002.9
20260505122503 23 59 6.4 8.0 0.00 0.00 0.00 41 1002.8
20260505122007 23 18 1.6 3.2 0.00 0.00 0.00 41 1003.0
20260505121503 23 51 0.0 6.4 0.00 0.00 0.00 40 1002.9
20260505121009 23 20 0.0 1.6 0.00 0.00 0.00 40 1002.9
20260505120505 24 20 0.0 3.2 0.00 0.00 0.00 39 1002.8
20260505120003 24 20 0.0 1.6 0.00 0.00 0.00 37 1002.7
20260505115503 24 20 0.0 3.2 0.00 0.00 0.00 38 1002.9
20260505115003 24 20 0.0 3.2 0.00 0.00 0.00 37 1002.8
20260505114504 24 21 0.0 4.8 0.00 0.00 0.00 36 1002.9
20260505114004 24 56 3.2 3.2 0.00 0.00 0.00 36 1002.8
20260505113503 24 166 0.0 8.0 0.00 0.00 0.00 35 1002.8
20260505113003 25 166 8.0 9.7 0.00 0.00 0.00 34 1002.9